PulseSat

PulseSat

GPS BIIR-4 (PRN 20)

Last updated on Feb. 20, 2019, 3:06 a.m. UTC

1 26360U 00025A   19050.36971844 -.00000005  00000-0  00000+0 0  9996
2 26360  53.2863 129.3526 0042386 132.8081 236.0147  2.00562929137616
UTC
Height (km)
Latitude
Longitude
Inclination
Orbital Period

Next 30 passes for location: Hong Kong

Rise time Rise Azimuth (degrees) Set time Set Azimuth (degrees) Duration Max altitude (degrees)

No matching passes for this satellites

PulseSat

PulseSat is the new satellites software and hardware trackering solution by Pulsely.
Satellite Two Line Element Set source: US Air Force Space Command

Download PulseSat for iOS
© 2017 Pulsely Limited